Weather History for Gillette, WY

Change the Weather History Date:

Saturday, October 26, 2013

  Actual Average Record
Temperature  
Mean Temperature 47 °F 42 °F  
Max Temperature 64 °F 55 °F 79 °F (1960)
Min Temperature 30 °F 29 °F 11 °F (1925)
Degree Days  
Heating Degree Days 18 23  
Month to date heating degree days 541 493  
Since 1 July heating degree days 682 788  
Cooling Degree Days 0 0  
Month to date cooling degree days 0 0  
Year to date cooling degree days 615 500  
Moisture  
Dew Point 30 °F    
Average Humidity 59    
Maximum Humidity 92    
Minimum Humidity 26    
Precipitation  
Precipitation 0.00 in 0.02 in 0.60 in (1954)
Month to date precipitation 2.62 1.14  
Year to date precipitation 18.43 12.81  
Sea Level Pressure  
Sea Level Pressure 30.18 in    
Wind  
Wind Speed 5 mph (SW)    
Max Wind Speed 18 mph    
Max Gust Speed 21 mph    
Visibility 10 miles    
Events      
T = Trace of Precipitation, MM = Missing Value Source: NWS Daily Summary

Daily Weather History Graph

Daily Weather History Graph

Search for Another Location

Airport:

Trip Planner

Search our weather history database for the weather conditions in past years. The results will help you decide how hot, cold, wet, or windy it might be!

Date:

Astronomy

Oct. 26, 2013 Rise Set
Actual Time 7:31 AM MDT 5:59 PM MDT
Civil Twilight 7:01 AM MDT 6:29 PM MDT
Nautical Twilight 6:27 AM MDT 7:03 PM MDT
Astronomical Twilight 5:54 AM MDT 7:37 PM MDT
Moon No Moon Rise 1:51 PM MDT (10/26)
Length of Visible Light 11h 27m
Length of Day
10h 28m
Waning Gibbous, 52% of the Moon is Illuminated
Oct 26
Waning Gibbous
Oct 26
Last Quarter
Nov 3
New
Nov 9
First Quarter
Nov 17
Full

Hourly Weather History & Observations

Time (MDT) Temp. Windchill Dew Point Humidity Pressure Visibility Wind Dir Wind Speed Gust Speed Precip Events Conditions
12:53 AM 30.9 °F - 28.0 °F 89% 30.26 in 10.0 mi Calm Calm - N/A   Clear
1:53 AM 30.9 °F 27.5 °F 28.0 °F 89% 30.26 in 10.0 mi SW 3.5 mph - N/A   Clear
2:53 AM 32.0 °F 28.7 °F 28.0 °F 85% 30.27 in 10.0 mi SSW 3.5 mph - N/A   Clear
3:53 AM 30.9 °F 26.2 °F 27.0 °F 85% 30.27 in 10.0 mi SSW 4.6 mph - N/A   Clear
4:53 AM 32.0 °F 28.7 °F 27.0 °F 82% 30.27 in 10.0 mi South 3.5 mph - N/A   Clear
5:53 AM 35.1 °F 31.0 °F 28.9 °F 78% 30.29 in 10.0 mi SSW 4.6 mph - N/A   Clear
6:53 AM 33.1 °F 30.0 °F 28.9 °F 85% 30.29 in 10.0 mi South 3.5 mph - N/A   Clear
7:53 AM 39.9 °F 35.1 °F 32.0 °F 73% 30.27 in 10.0 mi South 6.9 mph - N/A   Clear
8:53 AM 46.0 °F - 35.1 °F 66% 30.29 in 10.0 mi Calm Calm - N/A   Clear
9:53 AM 52.0 °F - 36.0 °F 54% 30.25 in 10.0 mi SW 10.4 mph - N/A   Clear
10:53 AM 55.9 °F - 32.0 °F 40% 30.24 in 10.0 mi SW 13.8 mph - N/A   Clear
11:53 AM 60.1 °F - 36.0 °F 41% 30.23 in 10.0 mi WSW 12.7 mph - N/A   Unknown
12:53 PM 62.1 °F - 30.9 °F 31% 30.19 in 10.0 mi West 4.6 mph - N/A   Clear
1:53 PM 63.0 °F - 28.9 °F 28% 30.17 in 10.0 mi West 8.1 mph - N/A   Clear
2:53 PM 64.0 °F - 30.0 °F 28% 30.14 in 10.0 mi West 6.9 mph - N/A   Clear
3:53 PM 64.0 °F - 28.9 °F 27% 30.12 in 10.0 mi West 8.1 mph - N/A   Clear
4:53 PM 63.0 °F - 30.9 °F 30% 30.10 in 10.0 mi West 3.5 mph - N/A   Clear
5:53 PM 46.9 °F - 32.0 °F 56% 30.13 in 10.0 mi West 4.6 mph - N/A   Clear
6:53 PM 41.0 °F 38.0 °F 32.0 °F 70% 30.13 in 10.0 mi SSW 4.6 mph - N/A   Clear
7:53 PM 42.1 °F 37.1 °F 30.9 °F 65% 30.09 in 10.0 mi South 8.1 mph - N/A   Clear
8:53 PM 43.0 °F 38.2 °F 30.0 °F 60% 30.05 in 10.0 mi South 8.1 mph - N/A   Clear
9:53 PM 45.0 °F - 28.0 °F 52% 30.02 in 10.0 mi Calm Calm - N/A   Clear
10:53 PM 39.0 °F - 28.9 °F 67% 30.01 in 10.0 mi Calm Calm - N/A   Clear
11:53 PM 33.1 °F - 28.0 °F 82% 29.99 in 10.0 mi Calm Calm - N/A   Clear